Change the Weather History Date:

Friday, February 21, 2014

  Actual Average Record
Temperature  
Mean Temperature 64 °F -  
Max Temperature 77 °F 51 °F 77 °F (2014)
Min Temperature 50 °F 31 °F 6 °F (2015)
Growing Degree Days 14 (Base 50)    
Moisture  
Dew Point 56 °F    
Average Humidity 73    
Maximum Humidity 83    
Minimum Humidity 58    
Precipitation  
Precipitation 0.40 in - - ()
Sea Level Pressure  
Sea Level Pressure 29.88 in    
Wind  
Wind Speed 13 mph (SW)    
Max Wind Speed 23 mph    
Max Gust Speed 40 mph    
Visibility 9 miles    
Events Rain    
Averages and records for this station are not official NWS values.
T = Trace of Precipitation, MM = Missing Value Source: NWS Daily Summary

Daily Weather History Graph

Daily Weather History Graph

Search for Another Location

Airport or City:

Trip Planner

Search our weather history database for the weather conditions in past years. The results will help you decide how hot, cold, wet, or windy it might be!

Date:

Astronomy

Feb. 21, 2014 Rise Set
Actual Time 6:47 AM EST 5:52 PM EST
Civil Twilight 6:21 AM EST 6:18 PM EST
Nautical Twilight 5:50 AM EST 6:48 PM EST
Astronomical Twilight 5:20 AM EST 7:18 PM EST
Moon No Moon Rise 10:19 AM EST
Length of Visible Light 11h 57m
Length of Day
11h 04m
Waning Gibbous, 61% of the Moon is Illuminated
Feb 21
Waning Gibbous
Feb 22
Last Quarter
Mar 1
New
Mar 8
First Quarter
Mar 16
Full

Hourly Weather History & Observations

Time (EST) Temp. Dew Point Humidity Pressure Visibility Wind Dir Wind Speed Gust Speed Precip Events Conditions
12:54 AM 66.0 °F 59.0 °F 78% 29.98 in 10.0 mi South 10.4 mph - N/A   Clear
1:40 AM 66.2 °F 60.8 °F 83% 29.96 in 10.0 mi SSW 13.8 mph - N/A   Mostly Cloudy
1:54 AM 66.9 °F 60.1 °F 79% 29.95 in 10.0 mi SSW 15.0 mph 23.0 mph N/A   Mostly Cloudy
2:54 AM 68.0 °F 60.1 °F 76% 29.94 in 10.0 mi SSW 17.3 mph 25.3 mph N/A   Mostly Cloudy
3:54 AM 68.0 °F 60.1 °F 76% 29.96 in 10.0 mi SW 17.3 mph - N/A   Overcast
4:19 AM 68.0 °F 60.8 °F 78% 29.95 in 10.0 mi SW 13.8 mph - N/A   Overcast
4:54 AM 66.9 °F 59.0 °F 76% 29.95 in 10.0 mi SSW 15.0 mph - N/A   Mostly Cloudy
5:54 AM 68.0 °F 60.1 °F 76% 29.93 in 10.0 mi South 17.3 mph 23.0 mph N/A   Mostly Cloudy
6:36 AM 68.0 °F 60.8 °F 78% 29.91 in 10.0 mi South 16.1 mph - N/A   Overcast
7:54 AM 66.9 °F 60.1 °F 79% 29.91 in 10.0 mi South 12.7 mph - N/A   Overcast
8:54 AM 68.0 °F 60.1 °F 76% 29.91 in 10.0 mi South 10.4 mph - N/A   Overcast
9:54 AM 71.1 °F 60.1 °F 68% 29.89 in 10.0 mi SSW 17.3 mph 25.3 mph N/A   Overcast
10:54 AM 73.0 °F 61.0 °F 66% 29.84 in 10.0 mi SSW 19.6 mph 26.5 mph N/A   Overcast
11:44 AM 75.2 °F 60.8 °F 61% 29.80 in 10.0 mi South 17.3 mph 27.6 mph N/A   Mostly Cloudy
11:54 AM 75.0 °F 61.0 °F 62% 29.79 in 10.0 mi South 16.1 mph 24.2 mph N/A   Mostly Cloudy
12:54 PM 77.0 °F 61.0 °F 58% 29.75 in 10.0 mi SSW 20.7 mph 32.2 mph N/A   Mostly Cloudy
1:17 PM 64.4 °F 55.4 °F 73% 29.79 in 1.0 mi WSW 15.0 mph 40.3 mph 0.11 in Rain Light Rain
1:25 PM 64.4 °F 55.4 °F 73% 29.80 in 7.0 mi WSW 20.7 mph 25.3 mph 0.14 in Rain Rain
1:54 PM 63.0 °F 57.0 °F 81% 29.79 in 7.0 mi SW 11.5 mph - 0.24 in Rain Light Rain
2:54 PM 64.0 °F 57.0 °F 78% 29.79 in 5.0 mi WSW 23.0 mph 27.6 mph 0.08 in Rain Light Rain
3:54 PM 64.0 °F 57.0 °F 78% 29.80 in 10.0 mi SW 15.0 mph - 0.08 in   Overcast
4:51 PM 64.4 °F 57.2 °F 77% 29.83 in 10.0 mi SW 10.4 mph - N/A   Overcast
4:54 PM 64.0 °F 57.9 °F 80% 29.83 in 10.0 mi SW 11.5 mph - N/A   Overcast
5:54 PM 64.0 °F 55.9 °F 75% 29.86 in 10.0 mi West 8.1 mph 17.3 mph N/A   Overcast
6:10 PM 62.6 °F 53.6 °F 72% 29.87 in 10.0 mi West 9.2 mph - N/A   Overcast
6:17 PM 62.6 °F 53.6 °F 72% 29.87 in 10.0 mi WSW 6.9 mph - N/A   Overcast
6:49 PM 60.8 °F 51.8 °F 72% 29.88 in 10.0 mi SW 6.9 mph - N/A   Overcast
6:54 PM 61.0 °F 52.0 °F 72% 29.88 in 10.0 mi SSW 6.9 mph - N/A   Overcast
7:54 PM 60.1 °F 51.1 °F 72% 29.91 in 10.0 mi WSW 4.6 mph - N/A   Overcast
8:54 PM 57.9 °F 46.9 °F 67% 29.94 in 10.0 mi West 9.2 mph - N/A   Clear
9:54 PM 54.0 °F 42.1 °F 64% 29.96 in 10.0 mi West 5.8 mph - N/A   Clear
10:54 PM 52.0 °F 39.9 °F 63% 29.97 in 10.0 mi West 6.9 mph - N/A   Clear
11:54 PM 50.0 °F 39.0 °F 66% 29.98 in 10.0 mi WNW 4.6 mph - N/A   Clear